Dewpoint
40 41 41 41 40 41 41 43 46 50 53 56 56 56 57 58 58 59 59 59 58 58 56 55 55 55 55 55 55 55 54 54 54 53 53 53 53 53 53 52 52 52 51
39 40 40 40 40 40 40 41 42 45 52 55 57 57 58 57 55 52 50 51 51 52 53 54 55 56 57 57 56 56 55 56 56 54 54 52 53 53 54 53 53 53 53
38 39 40 40 41 40 41 41 41 41 42 46 49 49 49 47 46 46 44 45 45 43 43 44 45 47 51 52 54 56 56 55 56 56 54 51 50 53 54 52 53 53 53
40 40 40 40 40 41 41 41 42 42 42 42 42 42 42 42 43 43 43 42 43 43 41 41 41 42 43 43 45 45 49 51 52 54 55 56 55 52 51 53 53 53 52
39 40 40 40 41 41 41 41 42 42 42 42 42 42 41 42 42 41 39 40 40 41 40 40 40 40 41 42 43 43 44 45 47 48 51 51 51 52 50 47 48 50 52
40 40 40 40 40 41 41 41 42 42 42 41 41 41 39 38 37 38 37 38 38 38 37 38 39 39 40 41 43 43 43 44 45 46 45 46 46 46 47 46 46 47 49
39 39 39 39 39 40 41 41 41 41 41 40 39 38 38 37 36 36 35 33 33 34 33 34 35 36 37 39 41 42 42 42 43 43 44 46 45 47 46 45 44 44 45
38 39 39 38 39 40 40 40 39 38 39 38 37 35 35 34 33 32 31 31 31 32 30 31 32 34 34 36 34 35 38 39 41 41 43 44 42 42 42 44 45 42 42
38 39 38 38 40 40 39 38 36 36 36 36 34 31 29 28 26 27 27 26 26 24 26 27 27 28 28 27 28 33 33 34 37 41 37 38 39 40 42 46 45 43 39
37 38 38 39 40 39 37 35 34 34 33 33 30 27 24 23 22 21 19 20 21 21 22 22 22 21 19 22 23 32 25 28 36 28 30 36 36 38 44 44 43 41 40
37 38 38 40 39 36 34 32 31 31 29 30 25 20 17 18 18 17 18 17 18 19 19 18 19 18 17 18 21 26 20 26 28 24 26 30 33 40 36 39 36 34 38
37 38 38 39 36 33 30 28 28 27 27 26 19 15 14 15 13 13 15 16 15 16 16 15 17 15 15 17 20 17 17 25 23 24 29 32 34 30 33 33 29 33 36
37 38 39 38 35 31 27 25 24 23 23 19 13 11 11 11 10 11 12 13 14 14 13 14 14 14 14 16 14 15 19 21 23 26 22 18 25 23 24 24 27 34 34
37 39 39 37 33 29 25 23 22 20 19 13 10 9 10 10 9 11 12 12 13 13 12 12 12 13 14 14 12 18 20 23 26 21 17 16 18 22 24 23 25 31 32
36 39 39 35 31 27 24 22 20 15 15 9 9 10 11 11 11 11 12 12 13 12 12 11 12 12 14 10 18 20 21 22 22 19 18 20 23 23 23 25 26 28 28
35 39 38 34 30 26 24 21 17 9 10 9 9 10 11 11 11 12 11 11 11 11 12 11 12 13 12 15 19 21 21 20 19 20 20 21 23 23 25 25 25 25 25
34 39 36 32 27 24 23 18 11 8 8 8 8 10 11 12 12 12 11 11 11 12 12 12 12 12 12 16 20 21 21 20 21 21 22 22 23 25 27 26 25 26 26
36 38 33 29 25 23 19 13 8 7 6 7 8 11 12 12 12 12 11 11 12 12 12 12 13 13 13 17 19 21 22 22 22 22 23 24 28 27 24 24 28 31 25
37 35 31 26 22 18 11 6 6 5 6 8 9 11 12 12 12 11 11 12 12 13 13 13 13 13 14 17 20 22 21 21 22 22 24 29 27 24 24 28 27 23 28
34 30 27 22 16 9 6 5 5 5 6 9 10 12 13 13 12 12 12 13 14 13 14 14 14 15 15 17 21 21 21 21 22 23 29 26 22 23 25 21 22 24 21
29 26 22 18 11 7 7 6 5 5 9 11 12 12 12 12 13 13 13 14 15 15 14 14 14 15 17 19 21 21 21 21 24 29 22 21 24 29 20 19 21 20 21
27 24 19 13 9 9 8 6 5 9 10 11 12 12 12 12 13 14 15 16 15 15 14 14 15 17 19 20 21 21 21 22 25 22 20 24 29 19 18 20 19 20 21
25 21 17 11 7 9 8 5 8 10 11 11 11 11 12 12 13 14 15 15 15 14 14 14 16 19 20 21 21 22 23 24 21 21 26 25 19 16 19 18 18 19 20
22 17 11 7 7 9 9 9 10 11 11 10 10 11 12 14 14 15 15 16 15 15 15 17 19 20 20 21 21 23 25 23 22 29 28 19 16 17 18 18 18 18 20
18 13 10 8 7 9 9 10 10 11 10 11 11 12 13 14 15 15 16 15 15 17 18 18 19 20 21 20 20 22 20 22 25 19 17 16 17 17 17 17 17 18 19
15 11 8 7 7 9 9 10 10 11 11 11 11 12 14 15 16 15 15 17 18 18 18 18 19 19 19 20 21 19 22 23 15 13 14 18 18 16 16 17 17 17 18
Wind_Speed
7 12 16 18 18 18 18 20 21 19 9 6 3 2 4 5 5 6 8 8 8 9 8 10 12 12 14 15 15 14 16 17 15 13 16 18 20 22 21 21 21 22 24
13 13 16 18 18 18 21 23 23 21 16 8 5 4 6 9 10 13 16 17 17 16 14 13 13 13 13 14 15 14 15 13 13 10 15 12 12 16 21 19 20 22 19
13 12 16 16 18 22 21 22 21 22 21 17 11 11 10 10 14 15 15 16 16 17 18 17 16 16 14 14 15 14 14 17 16 13 12 12 17 20 15 19 17 21 19
8 12 14 16 17 16 18 20 20 20 20 18 21 22 17 16 9 10 10 15 18 18 18 17 18 17 15 18 16 15 15 15 16 16 12 16 20 21 24 10 13 18 19
11 13 14 14 13 15 17 18 20 21 20 22 19 18 18 12 10 13 16 17 15 17 17 18 17 17 14 15 16 19 19 13 14 14 17 18 16 16 19 29 20 20 16
11 11 12 14 15 15 17 18 21 20 20 20 20 21 20 17 18 19 18 16 13 13 16 17 15 15 15 17 16 17 18 18 16 15 15 15 15 19 19 23 25 25 21
12 12 14 14 15 15 14 15 18 19 17 20 21 20 18 18 17 16 15 17 17 16 19 18 18 17 17 17 16 15 17 17 17 18 17 14 15 16 17 19 24 23 23
12 12 12 13 16 15 15 16 17 18 17 18 18 17 17 14 13 14 13 13 12 12 14 16 15 16 16 16 17 15 16 17 18 20 17 16 17 16 17 18 20 26 25
13 13 11 14 14 14 13 13 15 16 16 15 15 16 16 16 14 13 10 11 12 13 15 14 15 15 16 17 18 16 19 19 18 16 17 17 18 18 17 17 18 18 25
13 12 12 14 13 12 12 13 15 15 13 14 14 13 14 13 14 14 16 15 13 13 14 14 15 15 16 17 19 17 20 19 15 19 21 20 20 20 16 16 16 17 19
15 14 14 12 12 11 12 13 14 14 13 12 12 15 16 14 12 12 12 13 13 14 14 15 15 16 17 18 19 19 19 21 19 19 22 24 22 18 18 16 16 19 18
15 14 16 14 11 11 11 12 12 12 11 11 13 13 12 12 15 15 13 12 13 13 13 15 15 16 17 17 18 20 19 19 21 22 21 20 18 18 15 17 22 21 13
13 14 14 12 10 9 10 11 11 10 9 9 10 12 13 14 14 15 14 14 15 15 16 15 16 17 18 19 18 17 20 21 21 16 19 22 20 20 19 21 21 18 15
16 15 13 10 9 9 9 8 8 8 8 10 12 12 13 13 14 13 14 14 14 14 15 16 16 16 18 19 18 22 22 20 17 17 19 20 21 22 25 23 23 21 21
14 15 14 11 9 9 7 7 7 7 8 9 10 11 11 12 13 14 14 13 13 15 15 17 18 18 17 17 24 24 24 23 23 21 21 19 24 29 26 25 25 25 24
14 15 13 11 9 8 6 5 4 5 6 7 8 10 13 13 14 14 16 16 16 16 16 17 18 21 18 26 28 28 24 23 23 23 22 23 25 22 30 30 34 32 29
13 15 13 11 10 8 6 4 3 3 3 6 9 11 13 14 15 16 16 16 17 17 18 18 19 21 20 26 29 30 24 22 23 23 25 25 21 25 22 28 32 30 32
10 15 14 12 9 6 5 4 2 3 8 10 10 10 12 14 15 16 15 18 15 17 19 19 19 20 20 26 29 30 23 23 23 23 24 23 22 24 29 30 28 24 28
13 16 14 11 9 6 4 3 3 7 7 8 10 11 13 15 14 17 18 17 16 18 19 18 21 20 22 27 28 29 23 23 24 24 22 23 25 29 37 31 30 32 26
14 15 12 11 9 5 4 3 5 5 8 10 11 12 12 14 18 17 18 13 15 18 19 22 19 21 22 24 28 29 22 24 24 23 19 25 27 36 35 34 30 27 30
12 12 11 9 7 5 3 4 4 6 8 9 11 13 15 16 15 15 15 17 18 17 19 21 20 19 17 21 29 32 25 22 24 20 24 23 32 31 37 38 24 29 35
10 9 9 6 5 4 3 2 5 6 8 10 12 15 16 15 14 16 17 16 16 18 21 21 21 17 18 21 26 31 31 31 25 26 26 25 27 35 36 29 35 36 32
8 6 7 6 4 3 3 4 6 8 9 12 15 17 17 16 15 15 17 17 15 17 20 19 20 21 19 19 26 29 30 31 28 24 30 23 29 33 25 30 34 32 22
8 6 7 5 3 1 2 4 7 9 10 14 16 17 17 17 14 12 13 14 16 17 18 19 21 22 21 19 20 21 22 25 24 25 16 23 27 27 27 25 24 22 22
8 7 6 3 2 3 5 7 8 8 12 14 16 16 14 15 16 14 14 15 14 16 21 21 21 22 22 22 31 32 27 26 27 32 20 21 21 22 23 23 23 23 23
8 7 4 2 3 6 8 9 9 10 12 14 13 14 14 14 15 17 18 15 19 23 25 27 25 21 26 31 33 34 34 33 38 28 20 19 20 23 24 25 26 25 27
Wind_Direction
57 50 47 45 46 44 44 41 42 33 58 64 52 0 319 340 7 4 352 340 327 316 298 290 293 295 292 290 292 287 282 286 276 278 280 268 258 254 252 248 248 248 244
73 58 53 52 49 50 47 45 44 42 46 65 67 82 79 68 59 47 45 42 44 38 37 22 3 344 328 316 308 299 297 288 289 271 288 295 291 254 246 249 248 250 254
111 91 72 62 56 55 53 55 50 49 48 51 66 69 62 51 46 36 37 32 38 36 31 25 19 12 7 355 340 328 315 307 299 280 272 296 296 307 279 256 249 248 247
125 105 91 74 68 65 64 63 58 55 50 52 67 71 68 67 44 38 29 29 28 27 24 16 12 7 1 359 349 345 341 335 323 320 298 275 288 302 306 282 283 269 259
134 115 100 92 83 77 74 69 66 60 56 59 63 69 66 57 42 31 30 23 17 19 19 10 4 360 354 345 343 343 340 333 327 320 317 315 308 301 303 305 305 297 288
143 118 105 101 92 83 76 74 72 62 58 60 56 59 55 44 38 25 22 12 10 8 11 2 358 352 348 343 337 333 332 328 322 319 317 313 311 309 308 305 305 300 297
155 136 120 108 102 93 84 77 76 68 62 62 56 51 49 45 39 27 18 12 6 3 359 358 354 351 344 339 335 327 322 321 315 313 311 309 308 306 304 302 303 299 305
166 146 130 122 116 103 89 83 77 70 61 60 57 52 48 45 38 28 21 13 2 350 349 347 345 343 340 338 335 328 323 320 314 312 316 316 311 303 298 295 298 304 302
166 149 131 129 118 102 92 90 83 73 63 62 60 51 44 40 32 24 19 7 358 353 346 342 341 340 340 338 334 328 329 323 319 324 323 315 313 304 298 292 304 303 306
164 148 138 130 113 106 96 83 78 75 66 61 55 48 39 32 26 21 14 3 350 345 343 344 343 342 341 338 336 330 329 325 334 330 328 312 310 307 298 308 306 303 298
173 160 146 132 120 105 88 80 71 66 57 57 48 40 30 23 16 14 5 358 346 341 342 342 340 340 337 335 333 330 330 331 328 325 320 313 312 310 322 312 320 310 302
180 161 151 140 125 102 84 75 67 63 53 52 46 38 26 17 13 5 354 347 345 341 341 339 337 335 332 328 325 321 329 323 325 321 319 323 331 322 322 321 311 304 303
169 157 151 145 124 103 86 73 62 57 57 56 46 33 22 13 6 356 352 350 346 343 340 337 334 331 328 326 320 325 323 321 321 324 328 322 318 317 315 313 302 298 303
173 164 155 140 122 102 89 75 64 54 52 43 33 22 14 6 359 343 345 346 339 333 334 334 330 328 326 323 329 329 326 325 318 324 318 316 319 315 317 310 310 306 308
173 166 161 146 131 110 94 78 62 49 45 38 25 9 1 357 349 344 341 336 337 336 330 328 327 326 326 328 330 327 323 322 320 320 319 316 315 313 314 317 315 312 310
184 171 161 150 136 124 110 95 74 48 42 32 16 5 357 350 345 343 343 341 333 331 326 323 322 324 324 325 326 327 322 320 319 317 316 312 310 309 315 313 313 311 313
188 174 163 152 142 139 143 128 89 47 28 25 15 2 349 344 344 340 336 332 333 325 322 324 321 316 315 321 325 326 323 320 315 313 310 309 308 311 303 305 309 306 306
180 165 156 145 148 146 132 126 86 26 21 8 353 351 344 343 337 331 328 331 322 319 319 315 311 309 311 322 325 325 323 315 309 305 304 306 312 306 312 313 318 311 306
172 162 158 153 137 131 132 115 30 23 4 343 334 347 343 335 326 332 330 317 316 322 316 310 307 309 312 321 324 326 321 314 310 309 311 311 307 312 320 324 318 314 309
146 148 141 134 136 135 128 85 26 359 341 336 335 336 328 328 332 316 311 311 313 309 305 305 306 309 311 311 322 326 321 314 313 311 309 308 315 316 325 327 321 322 315
137 134 136 140 143 142 95 47 354 336 326 325 331 329 334 323 305 307 309 314 310 303 304 307 311 307 305 312 321 325 322 317 315 317 316 311 313 325 330 323 328 314 314
143 142 138 139 132 94 63 0 320 319 328 330 327 326 317 315 310 310 308 304 301 307 311 310 309 310 306 313 319 320 321 321 321 316 312 312 330 333 329 331 321 323 324
159 147 141 140 138 117 61 326 321 332 330 330 325 317 314 310 307 305 306 309 310 308 304 307 308 313 318 315 314 315 316 320 320 316 312 338 333 331 329 325 325 325 316
173 159 155 165 166 108 293 303 326 334 331 319 315 313 309 312 306 297 294 300 303 300 303 308 314 315 316 316 311 314 317 318 317 310 333 329 330 328 322 322 322 319 315
174 166 161 168 240 293 334 334 330 328 318 312 306 303 302 303 310 305 298 299 293 298 311 313 314 316 316 315 319 323 321 322 325 329 327 327 327 323 324 323 323 320 316
165 159 166 198 313 328 322 322 328 322 310 310 310 308 310 310 309 305 306 301 306 312 314 315 316 316 316 316 321 322 325 330 333 325 316 321 320 323 323 322 321 318 314